Location: Alpino
(32.5215°N, 116.5815°W)
Time: 04:48:36
(UTC+00:00)

COSMO-SKYMED 1 - Pass Details

Date: 13 April 2024
Orbit: 621 x 623 km, 97.9° (Epoch: 28 May)

Event Time Altitude Azimuth Distance (km) Brightness Sun altitude
Rises 12:41:46 0° 153° (SSE) 2,889 6.1 -8.4°
Reaches altitude 10° 12:44:00 10° 147° (SSE) 1,987 5.4 -7.9°
Maximum altitude 12:48:08 45° 74° (ENE) 852 3.9 -7.1°
Drops below altitude 10° 12:52:16 10° 2° (N) 1,999 5.4 -6.2°
Sets 12:54:32 0° 356° (N) 2,909 6.2 -5.8°
